QPF
0.00 0.00 0.00 0.00 0.00 0.00 0.00 0.00 0.00 0.00 0.00 0.00 0.01 0.01 0.01 0.00 0.00 0.00 0.01 0.01 0.01 0.01 0.02 0.03 0.02 0.02 0.02 0.02 0.01 0.01 0.01 0.02 0.02 0.03 0.04 0.03 0.03 0.03 0.02 0.02 0.03 0.03 0.02 0.02
0.00 0.00 0.00 0.00 0.00 0.00 0.00 0.00 0.00 0.00 0.00 0.01 0.01 0.01 0.02 0.01 0.01 0.01 0.01 0.00 0.00 0.00 0.01 0.02 0.02 0.02 0.02 0.02 0.01 0.01 0.00 0.01 0.02 0.03 0.03 0.03 0.01 0.02 0.02 0.01 0.02 0.03 0.03 0.03
0.00 0.00 0.00 0.00 0.00 0.00 0.00 0.00 0.00 0.00 0.01 0.01 0.01 0.01 0.01 0.01 0.01 0.01 0.01 0.00 0.00 0.00 0.01 0.01 0.02 0.02 0.03 0.04 0.01 0.01 0.01 0.01 0.02 0.03 0.03 0.02 0.01 0.02 0.02 0.01 0.02 0.02 0.02 0.03
0.00 0.00 0.00 0.00 0.00 0.00 0.00 0.00 0.00 0.01 0.01 0.01 0.01 0.01 0.00 0.01 0.00 0.01 0.01 0.00 0.00 0.00 0.01 0.02 0.03 0.03 0.03 0.04 0.02 0.01 0.01 0.01 0.02 0.03 0.04 0.02 0.01 0.01 0.01 0.02 0.02 0.01 0.01 0.02
0.00 0.00 0.00 0.00 0.00 0.00 0.00 0.00 0.01 0.01 0.01 0.02 0.01 0.01 0.01 0.01 0.00 0.00 0.00 0.00 0.00 0.00 0.00 0.01 0.02 0.02 0.03 0.02 0.01 0.01 0.01 0.01 0.04 0.05 0.05 0.02 0.01 0.01 0.01 0.01 0.02 0.01 0.01 0.01
0.00 0.00 0.00 0.00 0.00 0.00 0.00 0.00 0.01 0.01 0.01 0.01 0.01 0.01 0.01 0.00 0.00 0.00 0.00 0.00 0.00 0.00 0.00 0.01 0.01 0.02 0.03 0.02 0.01 0.00 0.01 0.04 0.06 0.04 0.03 0.02 0.01 0.01 0.01 0.01 0.00 0.01 0.01 0.01
0.00 0.00 0.00 0.00 0.00 0.00 0.00 0.01 0.01 0.01 0.01 0.00 0.01 0.01 0.00 0.00 0.00 0.01 0.01 0.01 0.00 0.00 0.01 0.01 0.01 0.02 0.03 0.01 0.00 0.00 0.02 0.05 0.06 0.04 0.01 0.01 0.01 0.01 0.01 0.00 0.00 0.00 0.01 0.02
0.00 0.00 0.00 0.00 0.00 0.00 0.00 0.00 0.00 0.00 0.01 0.00 0.01 0.00 0.00 0.00 0.00 0.00 0.00 0.00 0.01 0.01 0.01 0.01 0.01 0.03 0.04 0.01 0.01 0.02 0.04 0.06 0.07 0.05 0.02 0.02 0.01 0.01 0.01 0.00 0.00 0.00 0.00 0.01
0.00 0.00 0.00 0.00 0.00 0.00 0.00 0.00 0.01 0.01 0.01 0.00 0.00 0.00 0.00 0.00 0.00 0.00 0.00 0.00 0.00 0.01 0.01 0.01 0.02 0.02 0.04 0.02 0.01 0.02 0.03 0.03 0.03 0.02 0.01 0.01 0.01 0.00 0.00 0.00 0.00 0.00 0.00 0.01
0.00 0.00 0.00 0.00 0.00 0.00 0.00 0.00 0.01 0.00 0.00 0.00 0.00 0.00 0.00 0.00 0.00 0.00 0.00 0.00 0.00 0.01 0.01 0.01 0.01 0.01 0.02 0.01 0.01 0.01 0.01 0.01 0.02 0.02 0.02 0.02 0.04 0.03 0.01 0.00 0.00 0.00 0.00 0.00
0.00 0.00 0.00 0.00 0.00 0.00 0.00 0.01 0.00 0.01 0.00 0.00 0.00 0.00 0.00 0.00 0.00 0.00 0.00 0.00 0.01 0.01 0.01 0.01 0.01 0.01 0.01 0.01 0.00 0.00 0.01 0.01 0.01 0.02 0.03 0.04 0.07 0.06 0.02 0.01 0.00 0.00 0.00 0.00
0.00 0.00 0.00 0.00 0.00 0.00 0.00 0.00 0.01 0.01 0.00 0.00 0.00 0.00 0.00 0.00 0.00 0.00 0.00 0.00 0.00 0.01 0.01 0.01 0.01 0.01 0.01 0.01 0.00 0.00 0.00 0.01 0.01 0.02 0.04 0.05 0.06 0.03 0.02 0.01 0.01 0.00 0.00 0.00
0.00 0.00 0.00 0.00 0.00 0.00 0.00 0.00 0.00 0.00 0.00 0.00 0.00 0.00 0.00 0.00 0.00 0.00 0.00 0.01 0.01 0.02 0.01 0.01 0.01 0.01 0.01 0.01 0.00 0.00 0.01 0.01 0.02 0.04 0.06 0.09 0.08 0.03 0.02 0.02 0.02 0.01 0.01 0.01
0.00 0.00 0.00 0.00 0.00 0.00 0.00 0.00 0.00 0.00 0.00 0.00 0.00 0.00 0.00 0.00 0.00 0.00 0.01 0.01 0.01 0.01 0.02 0.02 0.02 0.02 0.02 0.01 0.01 0.01 0.01 0.02 0.02 0.03 0.04 0.04 0.03 0.01 0.01 0.02 0.02 0.01 0.01 0.01
0.00 0.00 0.00 0.00 0.00 0.00 0.00 0.00 0.00 0.00 0.00 0.00 0.00 0.00 0.00 0.00 0.00 0.00 0.00 0.00 0.00 0.01 0.01 0.02 0.02 0.02 0.02 0.01 0.01 0.01 0.01 0.02 0.02 0.03 0.04 0.03 0.02 0.02 0.02 0.02 0.02 0.01 0.02 0.02
0.00 0.00 0.00 0.00 0.00 0.00 0.00 0.00 0.00 0.00 0.00 0.00 0.00 0.00 0.00 0.00 0.00 0.00 0.00 0.00 0.00 0.01 0.01 0.01 0.02 0.02 0.02 0.01 0.02 0.02 0.02 0.02 0.03 0.03 0.03 0.03 0.03 0.02 0.02 0.02 0.02 0.02 0.02 0.02
0.00 0.00 0.00 0.00 0.00 0.00 0.00 0.00 0.00 0.00 0.00 0.00 0.00 0.00 0.00 0.00 0.00 0.00 0.00 0.00 0.01 0.01 0.01 0.02 0.03 0.03 0.02 0.02 0.03 0.03 0.03 0.04 0.05 0.05 0.04 0.03 0.03 0.03 0.03 0.03 0.02 0.03 0.03 0.02
0.00 0.00 0.00 0.00 0.00 0.00 0.00 0.00 0.00 0.00 0.00 0.00 0.00 0.00 0.00 0.00 0.00 0.00 0.00 0.00 0.00 0.01 0.01 0.02 0.02 0.01 0.02 0.03 0.03 0.03 0.04 0.06 0.07 0.06 0.05 0.04 0.04 0.04 0.04 0.03 0.04 0.05 0.05 0.04
0.00 0.00 0.00 0.00 0.00 0.00 0.00 0.00 0.00 0.00 0.00 0.00 0.00 0.00 0.00 0.00 0.00 0.01 0.00 0.00 0.01 0.01 0.00 0.01 0.01 0.01 0.02 0.02 0.02 0.04 0.06 0.06 0.07 0.06 0.07 0.08 0.08 0.06 0.06 0.05 0.06 0.07 0.06 0.05
0.00 0.00 0.00 0.00 0.00 0.00 0.00 0.00 0.00 0.01 0.01 0.01 0.01 0.00 0.00 0.00 0.00 0.01 0.01 0.00 0.01 0.01 0.01 0.01 0.02 0.02 0.02 0.03 0.04 0.07 0.08 0.05 0.04 0.06 0.08 0.11 0.12 0.12 0.10 0.08 0.06 0.06 0.06 0.06
0.00 0.00 0.00 0.00 0.00 0.00 0.00 0.00 0.01 0.01 0.01 0.01 0.01 0.01 0.00 0.01 0.01 0.01 0.00 0.00 0.00 0.00 0.01 0.01 0.02 0.02 0.02 0.03 0.05 0.07 0.07 0.05 0.06 0.08 0.09 0.10 0.09 0.10 0.11 0.10 0.07 0.05 0.06 0.07
0.00 0.01 0.00 0.00 0.00 0.00 0.00 0.00 0.01 0.01 0.01 0.01 0.01 0.01 0.01 0.01 0.01 0.01 0.01 0.01 0.01 0.01 0.01 0.02 0.02 0.02 0.03 0.04 0.05 0.05 0.07 0.08 0.08 0.07 0.07 0.08 0.07 0.07 0.09 0.09 0.08 0.07 0.07 0.07
0.00 0.00 0.00 0.00 0.00 0.00 0.00 0.00 0.00 0.01 0.01 0.01 0.01 0.02 0.02 0.02 0.02 0.01 0.02 0.02 0.02 0.02 0.01 0.02 0.01 0.03 0.04 0.04 0.05 0.06 0.06 0.05 0.05 0.05 0.06 0.08 0.09 0.09 0.10 0.11 0.11 0.09 0.07 0.05
0.01 0.00 0.00 0.00 0.00 0.00 0.00 0.00 0.00 0.00 0.01 0.01 0.02 0.02 0.02 0.03 0.03 0.03 0.03 0.02 0.02 0.01 0.01 0.01 0.01 0.01 0.02 0.03 0.03 0.03 0.03 0.03 0.04 0.05 0.06 0.07 0.10 0.12 0.13 0.12 0.11 0.09 0.08 0.05
0.02 0.01 0.00 0.00 0.00 0.01 0.01 0.01 0.01 0.01 0.01 0.01 0.02 0.03 0.04 0.05 0.05 0.04 0.02 0.02 0.01 0.01 0.01 0.01 0.01 0.01 0.01 0.01 0.01 0.01 0.02 0.02 0.05 0.08 0.08 0.07 0.09 0.11 0.14 0.14 0.11 0.10 0.10 0.08
0.03 0.02 0.01 0.01 0.01 0.01 0.01 0.01 0.01 0.01 0.01 0.01 0.01 0.02 0.05 0.08 0.07 0.04 0.02 0.01 0.01 0.02 0.02 0.01 0.01 0.01 0.01 0.01 0.00 0.00 0.01 0.01 0.03 0.06 0.06 0.05 0.04 0.04 0.06 0.09 0.09 0.08 0.07 0.07
MSLP
1010.38 1011.42 1012.35 1013.14 1013.80 1014.34 1014.80 1015.20 1015.54 1015.82 1016.03 1016.13 1016.13 1016.02 1015.82 1015.58 1015.34 1015.15 1015.05 1015.03 1015.10 1015.23 1015.37 1015.48 1015.54 1015.53 1015.47 1015.38 1015.30 1015.25 1015.25 1015.32 1015.43 1015.55 1015.65 1015.70 1015.66 1015.55 1015.36 1015.14 1014.93 1014.74 1014.63 1014.59
1011.10 1011.93 1012.62 1013.20 1013.69 1014.15 1014.60 1015.06 1015.52 1015.94 1016.27 1016.46 1016.47 1016.31 1016.02 1015.64 1015.26 1014.95 1014.76 1014.72 1014.82 1015.01 1015.23 1015.44 1015.57 1015.61 1015.56 1015.46 1015.35 1015.28 1015.28 1015.36 1015.50 1015.68 1015.84 1015.93 1015.93 1015.81 1015.60 1015.33 1015.05 1014.81 1014.66 1014.60
1011.55 1012.14 1012.61 1013.00 1013.38 1013.80 1014.31 1014.90 1015.53 1016.13 1016.60 1016.87 1016.89 1016.67 1016.24 1015.69 1015.13 1014.67 1014.37 1014.28 1014.38 1014.63 1014.95 1015.25 1015.47 1015.57 1015.56 1015.47 1015.35 1015.27 1015.27 1015.37 1015.55 1015.79 1016.01 1016.17 1016.21 1016.12 1015.91 1015.62 1015.31 1015.03 1014.84 1014.77
1011.78 1012.14 1012.41 1012.65 1012.97 1013.42 1014.05 1014.82 1015.66 1016.45 1017.08 1017.42 1017.44 1017.12 1016.53 1015.78 1015.00 1014.35 1013.91 1013.73 1013.82 1014.10 1014.50 1014.90 1015.21 1015.39 1015.43 1015.37 1015.27 1015.19 1015.21 1015.33 1015.56 1015.85 1016.15 1016.38 1016.49 1016.45 1016.27 1015.99 1015.67 1015.38 1015.17 1015.08
1011.88 1012.04 1012.14 1012.30 1012.60 1013.14 1013.92 1014.90 1015.96 1016.95 1017.72 1018.12 1018.11 1017.67 1016.89 1015.91 1014.90 1014.03 1013.41 1013.13 1013.17 1013.47 1013.92 1014.41 1014.82 1015.09 1015.20 1015.19 1015.12 1015.06 1015.09 1015.25 1015.52 1015.86 1016.23 1016.53 1016.72 1016.75 1016.62 1016.38 1016.08 1015.79 1015.57 1015.47
1011.96 1011.95 1011.93 1012.03 1012.38 1013.03 1013.98 1015.17 1016.43 1017.59 1018.47 1018.91 1018.84 1018.27 1017.30 1016.08 1014.82 1013.73 1012.93 1012.52 1012.49 1012.78 1013.28 1013.84 1014.33 1014.69 1014.88 1014.93 1014.90 1014.88 1014.93 1015.11 1015.41 1015.81 1016.22 1016.60 1016.85 1016.95 1016.90 1016.71 1016.45 1016.18 1015.98 1015.86
1012.08 1011.94 1011.85 1011.94 1012.34 1013.11 1014.22 1015.58 1017.01 1018.29 1019.23 1019.67 1019.53 1018.83 1017.66 1016.23 1014.76 1013.45 1012.49 1011.95 1011.84 1012.11 1012.62 1013.23 1013.81 1014.24 1014.51 1014.63 1014.66 1014.67 1014.74 1014.94 1015.26 1015.67 1016.13 1016.54 1016.86 1017.03 1017.04 1016.91 1016.71 1016.49 1016.30 1016.19
1012.25 1012.03 1011.91 1012.02 1012.49 1013.35 1014.58 1016.05 1017.57 1018.91 1019.86 1020.27 1020.04 1019.21 1017.90 1016.30 1014.66 1013.19 1012.09 1011.44 1011.27 1011.50 1012.02 1012.66 1013.29 1013.80 1014.14 1014.32 1014.40 1014.44 1014.54 1014.74 1015.06 1015.48 1015.94 1016.38 1016.73 1016.95 1017.02 1016.96 1016.82 1016.65 1016.50 1016.41
1012.42 1012.19 1012.08 1012.23 1012.75 1013.68 1014.96 1016.46 1017.99 1019.32 1020.22 1020.56 1020.25 1019.32 1017.91 1016.21 1014.47 1012.92 1011.73 1011.02 1010.79 1010.99 1011.50 1012.16 1012.82 1013.39 1013.79 1014.03 1014.16 1014.24 1014.35 1014.55 1014.85 1015.25 1015.69 1016.12 1016.48 1016.72 1016.84 1016.84 1016.76 1016.65 1016.55 1016.50
1012.54 1012.34 1012.28 1012.49 1013.06 1014.00 1015.26 1016.72 1018.17 1019.40 1020.20 1020.44 1020.05 1019.07 1017.63 1015.91 1014.16 1012.60 1011.40 1010.66 1010.42 1010.60 1011.09 1011.75 1012.43 1013.03 1013.48 1013.77 1013.95 1014.07 1014.20 1014.39 1014.66 1015.01 1015.41 1015.81 1016.15 1016.41 1016.55 1016.60 1016.59 1016.54 1016.50 1016.50
1012.53 1012.43 1012.46 1012.74 1013.33 1014.24 1015.42 1016.74 1018.03 1019.09 1019.75 1019.87 1019.42 1018.43 1017.02 1015.36 1013.70 1012.21 1011.07 1010.37 1010.13 1010.30 1010.78 1011.42 1012.11 1012.72 1013.21 1013.55 1013.78 1013.94 1014.09 1014.27 1014.52 1014.83 1015.17 1015.52 1015.83 1016.07 1016.23 1016.32 1016.36 1016.38 1016.41 1016.47
1012.39 1012.43 1012.59 1012.94 1013.53 1014.37 1015.41 1016.54 1017.61 1018.45 1018.92 1018.92 1018.42 1017.46 1016.14 1014.62 1013.11 1011.77 1010.75 1010.13 1009.92 1010.09 1010.54 1011.17 1011.83 1012.45 1012.97 1013.36 1013.64 1013.84 1014.02 1014.22 1014.44 1014.71 1015.01 1015.30 1015.57 1015.78 1015.95 1016.07 1016.17 1016.26 1016.36 1016.49
1012.16 1012.38 1012.67 1013.10 1013.68 1014.43 1015.28 1016.17 1016.97 1017.55 1017.82 1017.70 1017.17 1016.26 1015.08 1013.76 1012.45 1011.30 1010.44 1009.92 1009.76 1009.93 1010.36 1010.94 1011.58 1012.19 1012.73 1013.16 1013.50 1013.77 1013.99 1014.22 1014.45 1014.69 1014.95 1015.19 1015.42 1015.62 1015.79 1015.94 1016.08 1016.23 1016.41 1016.61
1011.94 1012.35 1012.78 1013.27 1013.83 1014.45 1015.10 1015.72 1016.22 1016.54 1016.60 1016.36 1015.81 1014.98 1013.97 1012.86 1011.78 1010.86 1010.16 1009.75 1009.65 1009.81 1010.20 1010.73 1011.33 1011.92 1012.47 1012.95 1013.35 1013.69 1013.99 1014.26 1014.51 1014.76 1015.00 1015.22 1015.42 1015.61 1015.78 1015.96 1016.15 1016.36 1016.60 1016.87
1011.84 1012.43 1012.99 1013.52 1014.03 1014.51 1014.94 1015.27 1015.49 1015.55 1015.41 1015.06 1014.50 1013.77 1012.92 1012.03 1011.19 1010.48 1009.95 1009.65 1009.58 1009.73 1010.06 1010.53 1011.07 1011.63 1012.19 1012.71 1013.18 1013.60 1013.98 1014.32 1014.63 1014.90 1015.15 1015.36 1015.56 1015.75 1015.94 1016.14 1016.38 1016.64 1016.94 1017.26
1011.97 1012.69 1013.34 1013.88 1014.32 1014.64 1014.84 1014.91 1014.86 1014.67 1014.36 1013.92 1013.37 1012.73 1012.05 1011.37 1010.75 1010.23 1009.84 1009.62 1009.58 1009.70 1009.97 1010.35 1010.83 1011.35 1011.91 1012.46 1013.00 1013.51 1013.97 1014.39 1014.77 1015.09 1015.36 1015.60 1015.81 1016.02 1016.23 1016.47 1016.74 1017.05 1017.40 1017.75
1012.36 1013.16 1013.83 1014.34 1014.68 1014.83 1014.82 1014.65 1014.36 1013.97 1013.52 1013.01 1012.48 1011.95 1011.42 1010.93 1010.50 1010.14 1009.87 1009.71 1009.67 1009.75 1009.95 1010.25 1010.65 1011.13 1011.66 1012.24 1012.83 1013.41 1013.96 1014.47 1014.92 1015.30 1015.62 1015.90 1016.14 1016.38 1016.62 1016.90 1017.21 1017.56 1017.93 1018.31
1012.98 1013.78 1014.42 1014.85 1015.06 1015.04 1014.83 1014.46 1013.98 1013.45 1012.90 1012.37 1011.88 1011.44 1011.06 1010.74 1010.47 1010.24 1010.07 1009.95 1009.90 1009.93 1010.05 1010.27 1010.60 1011.02 1011.53 1012.11 1012.73 1013.37 1013.99 1014.56 1015.07 1015.52 1015.90 1016.22 1016.51 1016.79 1017.08 1017.39 1017.74 1018.12 1018.51 1018.89
1013.71 1014.44 1014.99 1015.30 1015.37 1015.19 1014.82 1014.29 1013.68 1013.06 1012.47 1011.95 1011.53 1011.20 1010.95 1010.78 1010.64 1010.53 1010.43 1010.35 1010.30 1010.28 1010.34 1010.48 1010.74 1011.10 1011.57 1012.13 1012.76 1013.42 1014.08 1014.70 1015.26 1015.75 1016.18 1016.55 1016.89 1017.22 1017.55 1017.91 1018.29 1018.69 1019.09 1019.46
1014.40 1015.01 1015.42 1015.59 1015.51 1015.20 1014.71 1014.08 1013.41 1012.76 1012.18 1011.72 1011.38 1011.16 1011.05 1011.00 1010.99 1010.98 1010.95 1010.91 1010.86 1010.82 1010.83 1010.92 1011.11 1011.41 1011.84 1012.36 1012.97 1013.62 1014.27 1014.91 1015.49 1016.01 1016.47 1016.89 1017.27 1017.64 1018.02 1018.42 1018.83 1019.24 1019.64 1020.01
1014.91 1015.36 1015.62 1015.64 1015.44 1015.03 1014.47 1013.81 1013.14 1012.51 1012.00 1011.62 1011.39 1011.29 1011.30 1011.37 1011.47 1011.55 1011.59 1011.60 1011.57 1011.53 1011.52 1011.58 1011.73 1011.98 1012.35 1012.83 1013.38 1013.99 1014.61 1015.22 1015.79 1016.31 1016.79 1017.23 1017.65 1018.06 1018.48 1018.91 1019.34 1019.77 1020.17 1020.52
1015.12 1015.42 1015.53 1015.44 1015.15 1014.69 1014.11 1013.47 1012.86 1012.31 1011.90 1011.63 1011.51 1011.53 1011.65 1011.83 1012.03 1012.19 1012.31 1012.38 1012.40 1012.39 1012.40 1012.45 1012.57 1012.79 1013.11 1013.52 1014.00 1014.54 1015.09 1015.64 1016.17 1016.67 1017.15 1017.60 1018.03 1018.47 1018.92 1019.38 1019.83 1020.26 1020.65 1020.98
1015.02 1015.19 1015.18 1015.01 1014.68 1014.22 1013.69 1013.13 1012.61 1012.19 1011.89 1011.74 1011.74 1011.86 1012.08 1012.34 1012.62 1012.87 1013.06 1013.20 1013.29 1013.34 1013.39 1013.46 1013.58 1013.78 1014.05 1014.39 1014.79 1015.23 1015.70 1016.17 1016.64 1017.09 1017.53 1017.97 1018.42 1018.87 1019.34 1019.81 1020.27 1020.69 1021.07 1021.37
1014.66 1014.73 1014.66 1014.45 1014.13 1013.73 1013.28 1012.84 1012.46 1012.16 1011.99 1011.96 1012.05 1012.26 1012.54 1012.88 1013.22 1013.53 1013.80 1014.02 1014.18 1014.31 1014.42 1014.54 1014.68 1014.86 1015.09 1015.37 1015.69 1016.03 1016.40 1016.77 1017.16 1017.54 1017.95 1018.36 1018.80 1019.25 1019.72 1020.19 1020.64 1021.05 1021.40 1021.68
1014.14 1014.15 1014.05 1013.86 1013.61 1013.30 1012.98 1012.68 1012.44 1012.28 1012.23 1012.29 1012.46 1012.72 1013.04 1013.41 1013.79 1014.15 1014.49 1014.78 1015.03 1015.24 1015.43 1015.60 1015.78 1015.96 1016.16 1016.38 1016.61 1016.86 1017.12 1017.40 1017.70 1018.02 1018.37 1018.75 1019.16 1019.60 1020.06 1020.51 1020.94 1021.32 1021.64 1021.88
1013.57 1013.56 1013.48 1013.35 1013.18 1013.00 1012.82 1012.68 1012.58 1012.55 1012.60 1012.73 1012.94 1013.22 1013.56 1013.94 1014.33 1014.73 1015.10 1015.46 1015.78 1016.08 1016.34 1016.58 1016.79 1016.98 1017.16 1017.33 1017.49 1017.65 1017.82 1018.01 1018.22 1018.47 1018.77 1019.10 1019.49 1019.90 1020.33 1020.75 1021.14 1021.49 1021.76 1021.96
Thickness
5821 5806 5796 5803 5809 5809 5801 5792 5787 5795 5809 5801 5791 5788 5794 5798 5795 5791 5789 5788 5787 5787 5789 5788 5786 5784 5780 5776 5773 5771 5768 5767 5765 5762 5760 5758 5756 5757 5758 5758 5758 5757 5757 5756
5800 5796 5811 5817 5814 5810 5801 5791 5790 5798 5808 5800 5789 5789 5797 5800 5799 5798 5795 5792 5791 5788 5787 5788 5786 5784 5781 5778 5775 5773 5771 5769 5767 5765 5763 5761 5760 5759 5759 5759 5758 5757 5757 5756
5795 5804 5817 5813 5807 5801 5798 5793 5792 5791 5798 5798 5790 5782 5790 5799 5803 5802 5801 5799 5797 5794 5791 5790 5788 5786 5784 5781 5779 5777 5773 5771 5769 5767 5765 5762 5760 5759 5758 5757 5757 5757 5757 5757
5798 5810 5811 5806 5803 5802 5789 5806 5803 5796 5782 5770 5781 5759 5782 5791 5794 5799 5801 5801 5801 5801 5798 5794 5791 5789 5788 5786 5784 5780 5777 5774 5771 5769 5766 5762 5758 5756 5756 5757 5757 5757 5757 5756
5794 5805 5805 5800 5806 5808 5801 5809 5800 5791 5777 5767 5771 5761 5772 5788 5786 5796 5804 5807 5808 5807 5804 5800 5798 5795 5793 5791 5787 5783 5779 5776 5773 5771 5768 5764 5761 5759 5758 5757 5756 5756 5756 5755
5798 5811 5811 5810 5815 5813 5806 5794 5784 5772 5763 5749 5765 5759 5765 5781 5792 5802 5810 5813 5814 5812 5810 5806 5803 5800 5796 5794 5790 5786 5781 5777 5775 5772 5769 5766 5763 5760 5758 5756 5755 5754 5754 5754
5783 5796 5809 5814 5801 5801 5795 5769 5744 5741 5733 5740 5762 5760 5769 5801 5810 5813 5815 5818 5819 5817 5812 5808 5803 5800 5797 5795 5792 5788 5783 5779 5776 5773 5771 5768 5766 5763 5760 5758 5756 5754 5753 5753
5760 5763 5793 5805 5799 5787 5783 5773 5744 5731 5728 5739 5756 5756 5785 5812 5819 5822 5823 5823 5821 5818 5816 5812 5809 5805 5802 5799 5796 5791 5786 5782 5779 5775 5772 5769 5768 5765 5763 5761 5759 5756 5755 5754
5753 5760 5792 5804 5808 5797 5778 5770 5772 5747 5740 5736 5746 5764 5790 5812 5815 5817 5819 5820 5820 5820 5818 5816 5813 5810 5806 5802 5799 5796 5790 5785 5781 5778 5774 5771 5769 5766 5764 5762 5760 5758 5756 5755
5765 5760 5780 5794 5799 5794 5789 5773 5754 5740 5726 5727 5744 5756 5770 5795 5803 5810 5813 5816 5819 5820 5819 5817 5816 5813 5810 5807 5803 5799 5794 5789 5785 5780 5776 5773 5769 5766 5764 5762 5760 5758 5756 5755
5767 5755 5764 5776 5776 5773 5772 5765 5751 5738 5741 5728 5729 5753 5797 5801 5808 5809 5814 5818 5819 5819 5819 5818 5817 5815 5812 5808 5804 5799 5794 5789 5785 5781 5778 5774 5771 5767 5765 5762 5761 5759 5757 5755
5756 5744 5740 5757 5776 5783 5780 5768 5754 5744 5737 5733 5734 5757 5810 5810 5813 5813 5814 5817 5818 5819 5819 5818 5817 5814 5810 5807 5804 5799 5795 5790 5787 5783 5779 5774 5770 5767 5765 5763 5761 5759 5757 5755
5751 5736 5726 5735 5748 5763 5765 5763 5758 5746 5732 5725 5731 5761 5805 5806 5809 5812 5813 5815 5815 5816 5816 5815 5813 5811 5810 5808 5805 5801 5797 5792 5788 5783 5779 5774 5769 5766 5764 5762 5760 5758 5756 5753
5753 5730 5727 5724 5733 5747 5753 5757 5753 5747 5731 5728 5741 5765 5789 5797 5800 5805 5809 5811 5812 5812 5813 5811 5809 5809 5809 5808 5805 5801 5797 5794 5789 5784 5778 5774 5771 5768 5765 5761 5759 5757 5755 5752
5741 5725 5730 5737 5747 5750 5753 5755 5753 5752 5747 5743 5755 5763 5783 5793 5799 5803 5806 5806 5806 5806 5807 5807 5806 5805 5805 5804 5802 5799 5795 5792 5789 5783 5778 5775 5772 5768 5764 5761 5758 5756 5753 5751
5723 5719 5723 5728 5739 5743 5745 5750 5752 5754 5754 5754 5760 5766 5786 5793 5796 5798 5800 5801 5801 5802 5803 5804 5804 5803 5801 5800 5798 5796 5793 5790 5786 5781 5777 5775 5771 5767 5763 5760 5756 5753 5750 5748
5707 5709 5705 5707 5723 5731 5725 5741 5747 5751 5755 5756 5755 5769 5782 5784 5789 5793 5796 5797 5798 5800 5800 5800 5800 5800 5799 5798 5795 5792 5789 5786 5782 5778 5774 5772 5768 5764 5761 5759 5754 5749 5746 5744
5700 5695 5690 5692 5707 5699 5726 5750 5753 5752 5755 5759 5764 5770 5776 5781 5786 5790 5792 5793 5794 5796 5795 5795 5796 5796 5795 5793 5791 5789 5786 5782 5778 5774 5771 5769 5766 5762 5759 5755 5750 5746 5743 5740
5699 5692 5681 5678 5685 5699 5724 5741 5745 5742 5745 5756 5758 5764 5770 5776 5779 5781 5788 5791 5792 5792 5793 5793 5793 5792 5790 5788 5786 5783 5778 5776 5771 5769 5767 5765 5761 5757 5753 5749 5746 5744 5740 5737
5688 5688 5679 5673 5679 5683 5714 5741 5750 5743 5732 5752 5755 5757 5761 5765 5757 5767 5781 5784 5785 5787 5787 5787 5787 5786 5783 5782 5780 5776 5771 5769 5766 5765 5763 5760 5757 5754 5750 5746 5742 5740 5736 5732
5672 5670 5669 5669 5674 5689 5718 5733 5738 5716 5726 5748 5751 5753 5755 5757 5762 5769 5774 5776 5778 5779 5779 5780 5779 5777 5776 5776 5774 5769 5766 5764 5764 5763 5760 5754 5751 5749 5747 5743 5739 5735 5732 5727
5665 5662 5661 5662 5667 5683 5718 5722 5718 5723 5737 5742 5746 5749 5751 5755 5759 5762 5765 5766 5768 5769 5770 5771 5769 5768 5768 5768 5767 5763 5759 5760 5758 5756 5754 5750 5747 5744 5742 5737 5733 5730 5726 5722
5662 5668 5668 5672 5681 5699 5709 5715 5722 5726 5729 5735 5739 5744 5747 5748 5751 5753 5755 5757 5760 5761 5762 5762 5761 5759 5758 5759 5759 5755 5753 5753 5751 5749 5746 5743 5740 5737 5735 5731 5727 5722 5718 5715
5659 5664 5665 5671 5683 5693 5701 5709 5716 5720 5724 5730 5734 5738 5741 5741 5744 5746 5746 5747 5750 5752 5753 5753 5751 5750 5749 5749 5750 5749 5747 5745 5743 5741 5738 5735 5732 5729 5726 5724 5721 5716 5712 5709
5653 5658 5659 5665 5677 5686 5694 5700 5707 5713 5719 5722 5726 5730 5734 5736 5736 5738 5739 5739 5741 5743 5743 5744 5742 5742 5741 5741 5741 5741 5739 5738 5735 5732 5729 5727 5725 5723 5718 5716 5714 5711 5709 5707
5647 5652 5655 5660 5672 5674 5682 5692 5699 5703 5709 5713 5717 5720 5725 5729 5730 5730 5730 5733 5733 5734 5734 5734 5734 5733 5732 5732 5731 5731 5731 5730 5727 5724 5722 5720 5717 5715 5712 5709 5705 5704 5702 5700